TimeCDT,TemperatureF,Dew PointF,Humidity,Sea Level PressureIn,VisibilityMPH,Wind Direction,Wind SpeedMPH,Gust SpeedMPH,PrecipitationIn,Events,Conditions,WindDirDegrees,DateUTC
12:55 AM,37.9,36.0,93,29.78,10.0,SE,6.9,-,N/A,,Partly Cloudy,140,2012-10-21 05:55:00
1:55 AM,39.9,37.0,89,29.80,10.0,Calm,Calm,-,N/A,,Clear,0,2012-10-21 06:55:00
2:55 AM,37.0,36.0,96,29.81,10.0,SE,4.6,-,N/A,,Clear,140,2012-10-21 07:55:00
3:55 AM,39.9,39.0,97,29.79,10.0,SSE,5.8,-,N/A,,Mostly Cloudy,150,2012-10-21 08:55:00
4:55 AM,39.9,39.0,97,29.78,10.0,SE,4.6,-,N/A,,Partly Cloudy,140,2012-10-21 09:55:00
5:55 AM,39.9,37.9,93,29.81,9.0,Calm,Calm,-,N/A,,Mostly Cloudy,0,2012-10-21 10:55:00
6:55 AM,41.0,39.9,96,29.81,8.0,Calm,Calm,-,N/A,,Clear,0,2012-10-21 11:55:00
7:55 AM,42.1,41.0,96,29.84,7.0,Calm,Calm,-,0.00,Rain,Light Rain,0,2012-10-21 12:55:00
8:39 AM,42.8,42.8,100,29.80,2.5,SE,4.6,-,0.05,Rain,Rain,140,2012-10-21 13:39:00
8:48 AM,42.8,42.8,100,29.80,3.0,SE,3.5,-,0.07,Rain,Rain,140,2012-10-21 13:48:00
8:55 AM,43.0,42.1,97,29.84,3.0,SSE,3.5,-,0.08,Rain,Light Rain,160,2012-10-21 13:55:00
9:55 AM,44.1,43.0,96,29.83,3.0,SE,6.9,-,0.03,Rain,Light Rain,130,2012-10-21 14:55:00
10:06 AM,44.6,44.6,100,29.79,3.0,SE,6.9,-,0.00,,Mostly Cloudy,130,2012-10-21 15:06:00
10:22 AM,46.4,44.6,93,29.80,4.0,SSE,4.6,-,0.00,,Mostly Cloudy,150,2012-10-21 15:22:00
10:55 AM,46.9,45.0,93,29.83,6.0,SSE,5.8,-,0.00,,Overcast,150,2012-10-21 15:55:00
11:16 AM,48.2,46.4,93,29.79,8.0,SSE,6.9,-,N/A,,Mostly Cloudy,160,2012-10-21 16:16:00
11:55 AM,51.1,48.0,89,29.83,10.0,South,5.8,-,N/A,,Overcast,170,2012-10-21 16:55:00
12:55 PM,51.1,46.9,86,29.86,10.0,SSW,5.8,-,N/A,,Overcast,210,2012-10-21 17:55:00
1:03 PM,51.8,46.4,82,29.83,10.0,SSW,4.6,-,N/A,,Overcast,210,2012-10-21 18:03:00
1:42 PM,53.6,46.4,77,29.83,10.0,Calm,Calm,-,N/A,,Overcast,0,2012-10-21 18:42:00
1:55 PM,53.1,46.9,80,29.85,10.0,Calm,Calm,-,N/A,,Mostly Cloudy,0,2012-10-21 18:55:00
2:35 PM,53.6,46.4,77,29.82,10.0,Calm,Calm,-,N/A,,Mostly Cloudy,0,2012-10-21 19:35:00
2:55 PM,55.0,46.9,74,29.86,10.0,Calm,Calm,-,N/A,,Mostly Cloudy,0,2012-10-21 19:55:00
3:55 PM,53.1,48.0,83,29.88,10.0,NNE,4.6,-,N/A,,Overcast,20,2012-10-21 20:55:00
4:55 PM,53.1,48.0,83,29.88,10.0,NNE,4.6,-,N/A,,Overcast,20,2012-10-21 21:55:00
5:08 PM,51.8,48.2,88,29.86,10.0,ENE,3.5,-,N/A,,Mostly Cloudy,70,2012-10-21 22:08:00
5:55 PM,50.0,48.0,93,29.91,10.0,Calm,Calm,-,N/A,,Scattered Clouds,0,2012-10-21 22:55:00
6:27 PM,50.0,48.2,94,29.90,10.0,Calm,Calm,-,N/A,,Overcast,0,2012-10-21 23:27:00
6:50 PM,50.0,48.2,94,29.92,3.0,NNW,5.8,-,0.00,Rain,Light Rain,330,2012-10-21 23:50:00
6:55 PM,50.0,48.0,93,29.95,4.0,NW,10.4,-,0.00,Rain,Light Rain,320,2012-10-21 23:55:00
7:15 PM,48.2,48.2,100,29.92,5.0,NNW,10.4,-,0.01,Rain,Light Rain,330,2012-10-22 00:15:00
7:23 PM,48.2,48.2,100,29.93,5.0,NNW,8.1,-,0.01,,Overcast,330,2012-10-22 00:23:00
7:55 PM,48.9,46.9,93,29.96,9.0,Calm,Calm,-,0.01,,Overcast,0,2012-10-22 00:55:00
8:55 PM,46.9,46.0,97,29.97,6.0,Calm,Calm,-,N/A,,Mostly Cloudy,0,2012-10-22 01:55:00
9:12 PM,44.6,44.6,100,29.94,2.5,WNW,4.6,-,N/A,,Partly Cloudy,290,2012-10-22 02:12:00
9:21 PM,44.6,44.6,100,29.94,5.0,WNW,3.5,-,N/A,,Partly Cloudy,290,2012-10-22 02:21:00
9:46 PM,44.6,44.6,100,29.95,4.0,WNW,4.6,-,N/A,,Mostly Cloudy,300,2012-10-22 02:46:00
9:55 PM,46.0,46.0,100,29.99,5.0,WNW,4.6,-,N/A,,Mostly Cloudy,300,2012-10-22 02:55:00
10:23 PM,46.4,44.6,93,29.97,8.0,WNW,5.8,-,N/A,,Mostly Cloudy,300,2012-10-22 03:23:00
10:55 PM,46.0,45.0,96,30.01,10.0,NW,11.5,-,N/A,,Overcast,310,2012-10-22 03:55:00
11:29 PM,46.4,44.6,93,29.99,10.0,NW,10.4,-,N/A,,Overcast,320,2012-10-22 04:29:00
11:55 PM,46.0,44.1,93,30.03,10.0,NNW,11.5,-,N/A,,Overcast,330,2012-10-22 04:55:00